Weather in Cala Gonone

Italy     40°16′57″N   9°37′45″E
temp.,
°C
wind,
m/s
gust,
m/s
humid.,
%
clouds,
%
prec.,
mm/h
press.,
hPa
HPBL,
m
25 january, mon
mon2501:00+11wnw512532 0.0 10101027
04:00+11sw396233 0.0 10091028
07:00+13ssw5126465 0.0 10081404
10:00+13ssw5767100 0.0 1008351
13:00+15w686468 0.0 1006260
16:00+15w356878 0.0 1006164
19:00+14s127289 0.1 100642
22:00+12nne4580100 0.8 1007539
26 january, tue
tue2601:00+11nnw101264100 0.9 10071508
04:00+9nw81162100 0.0 10081167
07:00+9nw7116550 0.0 1011916
10:00+10nw710550 0.0 10151198
13:00+12nnw57370 0.0 10161999
16:00+12nw45380 0.0 10161770
19:00+11nw55610 0.0 1017514
22:00+9wnw68640 0.0 1018755
27 january, wed
wed2701:00+9w49550 0.0 10181013
04:00+9wnw595927 0.0 1018950
07:00+8wnw446763 0.0 1018247
10:00+9nw336334 0.0 1019221
13:00+10se225518 0.0 1019274
16:00+11sse5463100 0.0 1018434
19:00+11e115794 0.0 1019733
22:00+11wsw226054 0.0 1020657
28 january, thu
thu2801:00+10wsw346350 0.0 1020578
04:00+9wnw21723 0.0 1018165
07:00+10s12689 0.0 1018279
10:00+11s337119 0.0 1019201
13:00+12s347942 0.1 1019178
16:00+15nw51173100 0.1 1017323
19:00+15nw51369100 0.1 1017364
22:00+15wnw61775100 0.0 1018655
29 january, fri
fri2901:00+14nw41380100 0.0 1018510
04:00+14w238129 0.0 101762
07:00+14ssw128260 0.0 101727
10:00+14wnw128241 0.0 101858
13:00+15sse127770 0.0 101762
16:00+16wnw0177100 0.0 101549
19:00+15wnw4574100 0.0 101563
22:00+16sw1173100 0.0 101442